FENGYUN1
1 25730U 99025A 11173.92474677 .00000913 00000-0 55437-3 0 03692
2 25730 098.8169 134.9942 0023046 301.4798 058.4118 14.08645122623875
OKEAN-0
1 25860U 99039A 11173.93268081 .00000113 00000-0 24709-4 0 03480
2 25860 097.8854 140.2197 0001258 038.1983 321.9314 14.73795584641508
NOAA-16
1 26536U 00055A 11173.88494827 -.00000207 00000-0 -86505-4 0 03426
2 26536 099.1387 204.5427 0010731 021.7530 338.4100 14.12624726554160
NOAA-17
1 27453U 02032A 11173.72607734 .00000068 00000-0 47287-4 0 03313
2 27453 098.3781 213.1826 0012561 130.0010 230.2289 14.24284291467440
NOAA-18
1 28654U 05018A 11173.77098495 .00000488 00000-0 29363-3 0 08110
2 28654 098.9958 124.9313 0015247 088.5657 271.7263 14.11487611313713
NOAA-19
1 33591U 09005A 11173.76939019 -.00000008 00000-0 19653-4 0 00024
2 33591 098.8260 113.8301 0013809 324.6040 035.4230 14.11176028122174
HUBBLE
1 20580U 90037B 11172.77132387 .00000745 00000-0 43704-4 0 7844
2 20580 028.4728 346.5038 0003524 168.1964 191.8764 15.01399279960340
ISS
1 25544U 98067A 11173.84950508 .00008727 00000-0 10329-3 0 05877
2 25544 051.6425 132.1734 0011045 275.9893 126.1217 15.62102585721791
CO-58
1 28895U 05043F 11173.61609670 .00000175 00000-0 45663-4 0 09072
2 28895 097.9645 049.7957 0017281 200.6860 159.3626 14.60119380301038
FALCON
1 30776U 07006E 11173.81610133 .00001338 00000-0 96139-4 0 01227
2 30776 035.4348 312.7516 0000308 056.6900 303.3846 15.04693454235899
MAST
1 31126U 07012K 11173.88616217 .00000164 00000-0 46960-4 0 01986
2 31126 097.8946 200.7906 0095329 152.3388 208.2928 14.53759651221912
CAPE1
1 31130U 07012P 11173.60212111 .00000225 00000-0 62025-4 0 02075
2 31130 097.8982 197.2817 0102545 163.9411 196.5088 14.52406237221422
COMPASS
1 32787U 08021E 11173.67805137 .00000917 00000-0 12062-3 0 00192
2 32787 097.8467 237.3922 0015973 154.4477 205.7592 14.82457313170371
AAUSAT2
1 32788U 08021F 11173.70854488 .00000720 00000-0 95743-4 0 00101
2 32788 097.8471 237.6488 0015690 155.2124 204.9813 14.82644782170398
DO-64
1 32789U 08021G 11173.78383139 .00001030 00000-0 13264-3 0 00270
2 32789 097.8569 238.7365 0015966 152.5075 207.6972 14.83126390170414
CO-66
1 32791U 08021J 11173.62835270 .00000936 00000-0 12387-3 0 00127
2 32791 097.8478 237.2831 0016479 153.8346 206.3723 14.82145489170311
RS-30
1 32953U 08025A 11173.94270571 .00000010 00000-0 00000-0 0 08423
2 32953 082.5008 159.1450 0019752 018.7297 341.4505 12.43013812139808
TACSAT-3
1 35001U 09028A 11173.92362403 .00012589 00000-0 22664-3 0 06265
2 35001 040.4529 137.9046 0023145 255.9084 103.9161 15.49235746117975
PHARMSAT
1 35002U 09028B 11173.95681906 .00010064 00000-0 18477-3 0 05892
2 35002 040.4674 135.4880 0025036 262.2519 097.5458 15.48788478118007
HAWKSAT1
1 35003U 09028C 11172.87388259 .00056169 00000-0 51860-3 0 06629
2 35003 040.4509 112.3862 0021804 273.9470 085.8944 15.66342372118169
CP6
1 35004U 09028D 11173.95278614 .00100286 00000-0 66726-3 0 06620
2 35004 040.4515 096.4551 0020801 281.2094 078.6569 15.73991067118425
METEOR-M
1 35865U 09049A 11173.78103455 .00000176 00000-0 10000-3 0 04819
2 35865 098.7057 228.8375 0003334 026.8580 333.2769 14.21839883091383
RS-38
1 35869U 09049E 11173.78042187 .00000177 00000-0 10000-3 0 04740
2 35869 098.7018 228.8720 0005388 022.9464 337.1925 14.22014678091393
